Location: Moscow
(44.4414°N, 72.7154°W)
Time: 06:50:50
(UTC+00:00)

Vanguard 1 Rocket - Pass Details

Date: 21 November 2024
Orbit: 650 x 4218 km, 34.3° (Epoch: 04 December)

Event Time Altitude Azimuth Distance (km) Brightness Sun altitude
Rises 22:29:52 0° 279° (W) 6,968 13.2 -12.7°
Reaches altitude 10° 22:41:05 10° 246° (WSW) 4,703 12.4 -14.7°
Maximum altitude 22:42:37 10° 239° (WSW) 4,487 12.1 -15.0°
Drops below altitude 10° 22:44:04 10° 232° (SW) 4,328 11.9 -15.2°
Sets 22:51:17 0° 193° (SSW) 4,367 11.2 -16.5°
